AAL1120 KRAP-KMSP

Flight info

Callsign AAL1120
Flight time 1h 11m
Altitude 37000
Route RAP PIR UFFDA TORGY4
Aircraft B738/M-SDE2E3FGHIRWXY/LB1

Departure

Time 2026-04-21 19:07
Airport Rapid City Regional Airport (KRAP)

Arrival

Time 2026-04-21 20:18
Airport Minneapolis–Saint Paul International Airport / Wold–Chamberlain Field (KMSP)
Time Latitude Longitude Altitude Speed Heading
2026-04-21 18:50 44.03980 -103.05988 3161 ft 0 kts 211°
2026-04-21 18:59 44.03981 -103.05987 3161 ft 0 kts 213°
2026-04-21 18:59 44.03986 -103.05985 3161 ft 0 kts 185°
2026-04-21 18:59 44.03993 -103.05985 3162 ft 2 kts 158°
2026-04-21 19:00 44.04007 -103.05992 3162 ft 1 kts 168°
2026-04-21 19:00 44.04013 -103.05994 3162 ft 0 kts 210°
2026-04-21 19:00 44.04017 -103.05988 3162 ft 0 kts 258°
2026-04-21 19:00 44.04017 -103.05980 3162 ft 0 kts 303°
2026-04-21 19:01 44.04014 -103.05976 3162 ft 1 kts 329°
2026-04-21 19:01 44.04010 -103.05972 3162 ft 0 kts 321°
2026-04-21 19:02 44.04012 -103.05974 3162 ft 2 kts 322°
2026-04-21 19:02 44.04046 -103.05981 3163 ft 6 kts 18°
2026-04-21 19:03 44.04090 -103.05943 3164 ft 9 kts 28°
2026-04-21 19:03 44.04162 -103.05885 3164 ft 14 kts 48°
2026-04-21 19:03 44.04253 -103.05859 3166 ft 14 kts 337°
2026-04-21 19:03 44.04356 -103.05934 3168 ft 19 kts 332°
2026-04-21 19:04 44.04490 -103.06036 3170 ft 24 kts 330°
2026-04-21 19:04 44.04638 -103.06142 3173 ft 23 kts 330°
2026-04-21 19:04 44.04778 -103.06247 3174 ft 22 kts 332°
2026-04-21 19:04 44.04916 -103.06350 3174 ft 22 kts 332°
2026-04-21 19:05 44.05054 -103.06452 3175 ft 22 kts 332°
2026-04-21 19:05 44.05189 -103.06552 3175 ft 22 kts 333°
2026-04-21 19:05 44.05283 -103.06618 3175 ft 7 kts 346°
2026-04-21 19:05 44.05322 -103.06603 3178 ft 3 kts 38°
2026-04-21 19:06 44.05339 -103.06580 3181 ft 1 kts 51°
2026-04-21 19:06 44.05355 -103.06538 3185 ft 8 kts 74°
2026-04-21 19:06 44.05342 -103.06478 3189 ft 4 kts 135°
2026-04-21 19:06 44.05233 -103.06390 3189 ft 51 kts 152°
2026-04-21 19:07 44.04669 -103.05971 3177 ft 132 kts 152°
2026-04-21 19:07 44.03671 -103.05211 3380 ft 180 kts 150°
2026-04-21 19:07 44.02643 -103.04333 4460 ft 175 kts 150°
2026-04-21 19:07 44.01528 -103.03746 5255 ft 180 kts 168°
2026-04-21 19:08 44.00287 -103.03231 5858 ft 194 kts 155°
2026-04-21 19:08 43.99170 -103.02116 6477 ft 209 kts 135°
2026-04-21 19:08 43.98358 -103.00372 7041 ft 228 kts 115°
2026-04-21 19:08 43.98032 -102.98104 7536 ft 255 kts 90°
2026-04-21 19:09 43.98316 -102.95586 8225 ft 272 kts 78°
2026-04-21 19:09 43.98802 -102.92988 8878 ft 289 kts 76°
2026-04-21 19:09 43.99316 -102.90260 9671 ft 300 kts 76°
2026-04-21 19:09 43.99810 -102.87422 10515 ft 308 kts 77°
2026-04-21 19:10 44.00292 -102.84484 11134 ft 325 kts 78°
2026-04-21 19:10 44.00789 -102.81358 11748 ft 342 kts 78°
2026-04-21 19:10 44.01310 -102.78046 12370 ft 358 kts 77°
2026-04-21 19:10 44.01845 -102.74637 12924 ft 376 kts 77°
2026-04-21 19:11 44.02412 -102.71027 13584 ft 389 kts 77°
2026-04-21 19:11 44.02990 -102.67348 14365 ft 398 kts 77°
2026-04-21 19:11 44.03590 -102.63528 15212 ft 405 kts 76°
2026-04-21 19:11 44.04188 -102.59708 16082 ft 411 kts 76°
2026-04-21 19:12 44.04798 -102.55812 16891 ft 417 kts 76°
2026-04-21 19:12 44.05407 -102.51906 17674 ft 424 kts 76°
2026-04-21 19:12 44.06031 -102.47900 18551 ft 427 kts 76°
2026-04-21 19:12 44.06660 -102.43849 19364 ft 433 kts 75°
2026-04-21 19:13 44.07296 -102.39743 20159 ft 438 kts 75°
2026-04-21 19:13 44.07934 -102.35620 20936 ft 443 kts 75°
2026-04-21 19:13 44.08579 -102.31439 21635 ft 449 kts 76°
2026-04-21 19:13 44.09230 -102.27206 22368 ft 453 kts 76°
2026-04-21 19:14 44.09888 -102.22913 23058 ft 459 kts 76°
2026-04-21 19:14 44.10559 -102.18525 23775 ft 463 kts 76°
2026-04-21 19:14 44.11225 -102.14150 24467 ft 467 kts 76°
2026-04-21 19:14 44.11897 -102.09728 25062 ft 472 kts 76°
2026-04-21 19:15 44.12568 -102.05300 25683 ft 476 kts 76°
2026-04-21 19:15 44.13252 -102.00771 26280 ft 480 kts 76°
2026-04-21 19:15 44.13938 -101.96219 26823 ft 485 kts 76°
2026-04-21 19:15 44.14632 -101.91598 27399 ft 489 kts 76°
2026-04-21 19:16 44.15326 -101.86963 27946 ft 493 kts 76°
2026-04-21 19:16 44.16021 -101.82310 28450 ft 498 kts 76°
2026-04-21 19:16 44.16718 -101.77621 29254 ft 494 kts 76°
2026-04-21 19:16 44.17405 -101.72979 30028 ft 492 kts 76°
2026-04-21 19:17 44.18767 -101.63736 31345 ft 490 kts 76°
2026-04-21 19:17 44.19442 -101.59136 31997 ft 489 kts 75°
2026-04-21 19:17 44.20128 -101.54456 32586 ft 489 kts 75°
2026-04-21 19:18 44.20799 -101.49860 33212 ft 488 kts 75°
2026-04-21 19:18 44.21479 -101.45190 33821 ft 487 kts 75°
2026-04-21 19:18 44.22149 -101.40583 34447 ft 485 kts 75°
2026-04-21 19:18 44.22812 -101.36004 35080 ft 483 kts 75°
2026-04-21 19:19 44.23470 -101.31448 35738 ft 481 kts 76°
2026-04-21 19:19 44.24127 -101.26883 36392 ft 478 kts 76°
2026-04-21 19:19 44.24772 -101.22385 36889 ft 477 kts 75°
2026-04-21 19:19 44.25426 -101.17821 36942 ft 482 kts 75°
2026-04-21 19:20 44.26720 -101.08757 36943 ft 477 kts 75°
2026-04-21 19:20 44.28004 -100.99702 36941 ft 479 kts 75°
2026-04-21 19:21 44.29290 -100.90575 36943 ft 478 kts 75°
2026-04-21 19:21 44.30553 -100.81557 36946 ft 477 kts 75°
2026-04-21 19:22 44.31815 -100.72489 36947 ft 477 kts 75°
2026-04-21 19:22 44.33068 -100.63425 36946 ft 477 kts 75°
2026-04-21 19:23 44.34322 -100.54305 36946 ft 477 kts 75°
2026-04-21 19:23 44.35553 -100.45292 36951 ft 477 kts 75°
2026-04-21 19:24 44.36792 -100.36162 36949 ft 477 kts 75°
2026-04-21 19:24 44.38017 -100.27084 36950 ft 477 kts 75°
2026-04-21 19:25 44.39237 -100.18024 36951 ft 478 kts 75°
2026-04-21 19:25 44.40051 -100.08795 36954 ft 483 kts 82°
2026-04-21 19:26 44.40409 -99.99380 36950 ft 483 kts 84°
2026-04-21 19:26 44.40682 -99.90084 36944 ft 484 kts 83°
2026-04-21 19:27 44.40980 -99.80743 36944 ft 483 kts 83°
2026-04-21 19:27 44.41307 -99.71407 36949 ft 482 kts 83°
2026-04-21 19:28 44.41651 -99.62065 36952 ft 481 kts 82°
2026-04-21 19:28 44.41998 -99.52780 36950 ft 481 kts 82°
2026-04-21 19:29 44.42339 -99.43477 36955 ft 480 kts 82°
2026-04-21 19:29 44.42677 -99.34127 36957 ft 482 kts 83°
2026-04-21 19:30 44.43004 -99.24828 36959 ft 482 kts 83°
2026-04-21 19:30 44.43324 -99.15488 36961 ft 482 kts 83°
2026-04-21 19:31 44.43637 -99.06142 36962 ft 482 kts 82°
2026-04-21 19:31 44.43942 -98.96797 36963 ft 482 kts 82°
2026-04-21 19:32 44.44239 -98.87464 36961 ft 481 kts 82°
2026-04-21 19:32 44.44528 -98.78153 36960 ft 480 kts 82°
2026-04-21 19:33 44.44809 -98.68899 36954 ft 480 kts 82°
2026-04-21 19:33 44.45083 -98.59605 36950 ft 480 kts 82°
2026-04-21 19:34 44.45351 -98.50242 36951 ft 481 kts 82°
2026-04-21 19:34 44.45609 -98.40942 36953 ft 480 kts 82°
2026-04-21 19:35 44.45981 -98.27045 36954 ft 480 kts 82°
2026-04-21 19:36 44.46222 -98.17700 36953 ft 480 kts 82°
2026-04-21 19:36 44.46455 -98.08395 36949 ft 480 kts 82°
2026-04-21 19:37 44.46678 -97.99103 36946 ft 478 kts 82°
2026-04-21 19:37 44.46894 -97.89856 36949 ft 479 kts 82°
2026-04-21 19:38 44.47103 -97.80585 36954 ft 477 kts 82°
2026-04-21 19:38 44.47305 -97.71313 36959 ft 479 kts 82°
2026-04-21 19:39 44.47500 -97.61999 36965 ft 478 kts 82°
2026-04-21 19:39 44.47687 -97.52711 36964 ft 479 kts 82°
2026-04-21 19:40 44.47867 -97.43424 36968 ft 479 kts 82°
2026-04-21 19:40 44.48036 -97.34190 36974 ft 477 kts 82°
2026-04-21 19:41 44.48200 -97.24895 36971 ft 479 kts 82°
2026-04-21 19:41 44.48356 -97.15605 36975 ft 478 kts 82°
2026-04-21 19:42 44.48504 -97.06347 36973 ft 477 kts 82°
2026-04-21 19:42 44.48644 -96.97139 36974 ft 477 kts 82°
2026-04-21 19:43 44.48780 -96.87804 36971 ft 478 kts 82°
2026-04-21 19:43 44.48906 -96.78569 36966 ft 477 kts 82°
2026-04-21 19:44 44.49025 -96.69261 36963 ft 478 kts 82°
2026-04-21 19:44 44.49137 -96.59992 36964 ft 479 kts 82°
2026-04-21 19:45 44.49241 -96.50671 36965 ft 478 kts 82°
2026-04-21 19:45 44.49339 -96.41368 36969 ft 479 kts 82°
2026-04-21 19:46 44.49425 -96.32111 36969 ft 478 kts 82°
2026-04-21 19:46 44.49506 -96.22848 36966 ft 477 kts 82°
2026-04-21 19:47 44.49581 -96.13585 36702 ft 477 kts 82°
2026-04-21 19:47 44.49611 -96.08987 36238 ft 472 kts 82°
2026-04-21 19:47 44.49574 -96.04394 35671 ft 470 kts 84°
2026-04-21 19:47 44.49439 -95.99871 34992 ft 470 kts 86°
2026-04-21 19:48 44.49245 -95.95287 34289 ft 470 kts 86°
2026-04-21 19:48 44.49033 -95.90797 33611 ft 470 kts 86°
2026-04-21 19:48 44.48811 -95.86197 32888 ft 471 kts 87°
2026-04-21 19:48 44.48593 -95.81628 32155 ft 472 kts 87°
2026-04-21 19:49 44.48382 -95.77110 31628 ft 469 kts 87°
2026-04-21 19:49 44.48174 -95.72582 31062 ft 466 kts 87°
2026-04-21 19:49 44.47971 -95.68104 30491 ft 463 kts 87°
2026-04-21 19:49 44.47772 -95.63625 29917 ft 460 kts 87°
2026-04-21 19:50 44.47577 -95.59225 29363 ft 458 kts 87°
2026-04-21 19:50 44.47382 -95.54775 28777 ft 456 kts 88°
2026-04-21 19:50 44.47190 -95.50387 28189 ft 454 kts 88°
2026-04-21 19:50 44.46996 -95.45976 27600 ft 452 kts 88°
2026-04-21 19:51 44.46804 -95.41649 27023 ft 450 kts 89°
2026-04-21 19:51 44.46611 -95.37322 26441 ft 448 kts 89°
2026-04-21 19:51 44.46417 -95.33004 25863 ft 445 kts 90°
2026-04-21 19:51 44.46222 -95.28696 25288 ft 443 kts 90°
2026-04-21 19:52 44.46035 -95.24423 24707 ft 440 kts 89°
2026-04-21 19:52 44.46008 -95.20200 24131 ft 434 kts 83°
2026-04-21 19:52 44.46364 -95.16103 23943 ft 417 kts 74°
2026-04-21 19:52 44.47050 -95.12206 23950 ft 415 kts 69°
2026-04-21 19:53 44.47889 -95.08355 23715 ft 415 kts 68°
2026-04-21 19:53 44.48799 -95.04525 23140 ft 413 kts 67°
2026-04-21 19:53 44.49716 -95.00781 22584 ft 411 kts 66°
2026-04-21 19:53 44.50641 -94.97005 22014 ft 408 kts 66°
2026-04-21 19:54 44.51551 -94.93252 21463 ft 405 kts 67°
2026-04-21 19:54 44.52435 -94.89550 20904 ft 403 kts 67°
2026-04-21 19:54 44.53313 -94.85831 20345 ft 401 kts 67°
2026-04-21 19:54 44.54172 -94.82154 19781 ft 399 kts 67°
2026-04-21 19:55 44.55020 -94.78497 19241 ft 396 kts 68°
2026-04-21 19:55 44.55863 -94.74846 18689 ft 393 kts 68°
2026-04-21 19:55 44.56695 -94.71226 18141 ft 390 kts 68°
2026-04-21 19:55 44.57515 -94.67649 17611 ft 387 kts 67°
2026-04-21 19:56 44.58335 -94.64061 17086 ft 383 kts 68°
2026-04-21 19:56 44.59148 -94.60503 16549 ft 380 kts 68°
2026-04-21 19:56 44.59937 -94.57044 16005 ft 378 kts 68°
2026-04-21 19:56 44.60735 -94.53538 15467 ft 375 kts 68°
2026-04-21 19:57 44.61530 -94.50038 14927 ft 372 kts 68°
2026-04-21 19:57 44.62307 -94.46618 14393 ft 370 kts 68°
2026-04-21 19:57 44.63079 -94.43218 13867 ft 368 kts 69°
2026-04-21 19:57 44.63858 -94.39781 13319 ft 365 kts 69°
2026-04-21 19:58 44.64431 -94.37245 13024 ft 360 kts 68°
2026-04-21 19:58 44.65178 -94.33933 12545 ft 357 kts 69°
2026-04-21 19:58 44.65924 -94.30624 12024 ft 355 kts 69°
2026-04-21 19:58 44.66673 -94.27299 11484 ft 354 kts 69°
2026-04-21 19:59 44.67401 -94.24064 11024 ft 348 kts 69°
2026-04-21 19:59 44.68128 -94.20830 10584 ft 344 kts 69°
2026-04-21 19:59 44.68834 -94.17694 10309 ft 336 kts 69°
2026-04-21 19:59 44.69518 -94.14643 10184 ft 322 kts 69°
2026-04-21 20:00 44.70179 -94.11692 10006 ft 311 kts 69°
2026-04-21 20:00 44.70814 -94.08860 9997 ft 296 kts 69°
2026-04-21 20:00 44.71422 -94.06156 10005 ft 295 kts 69°
2026-04-21 20:00 44.72044 -94.03402 10002 ft 296 kts 69°
2026-04-21 20:01 44.72669 -94.00624 10009 ft 296 kts 69°
2026-04-21 20:01 44.73284 -93.97875 10016 ft 297 kts 69°
2026-04-21 20:01 44.73901 -93.95114 9989 ft 295 kts 69°
2026-04-21 20:01 44.74511 -93.92382 10013 ft 296 kts 69°
2026-04-21 20:02 44.75126 -93.89619 10002 ft 296 kts 69°
2026-04-21 20:02 44.75741 -93.86862 10006 ft 296 kts 69°
2026-04-21 20:02 44.76352 -93.84126 9989 ft 296 kts 69°
2026-04-21 20:02 44.76969 -93.81363 10000 ft 296 kts 69°
2026-04-21 20:03 44.77586 -93.78600 10002 ft 296 kts 69°
2026-04-21 20:03 44.78199 -93.75844 10001 ft 296 kts 69°
2026-04-21 20:03 44.78812 -93.73086 9995 ft 295 kts 69°
2026-04-21 20:03 44.79425 -93.70324 9872 ft 298 kts 69°
2026-04-21 20:04 44.80034 -93.67574 9634 ft 295 kts 69°
2026-04-21 20:04 44.80637 -93.64839 9364 ft 293 kts 69°
2026-04-21 20:04 44.81239 -93.62116 9120 ft 292 kts 69°
2026-04-21 20:04 44.81836 -93.59404 8987 ft 289 kts 69°
2026-04-21 20:05 44.82432 -93.56705 8989 ft 292 kts 69°
2026-04-21 20:05 44.83039 -93.53950 8989 ft 292 kts 69°
2026-04-21 20:05 44.83634 -93.51239 8989 ft 291 kts 69°
2026-04-21 20:05 44.84233 -93.48510 8992 ft 292 kts 69°
2026-04-21 20:06 44.84803 -93.45766 8988 ft 293 kts 73°
2026-04-21 20:06 44.85028 -93.42921 8984 ft 296 kts 92°
2026-04-21 20:06 44.84459 -93.40108 8807 ft 303 kts 116°
2026-04-21 20:06 44.83377 -93.37601 8569 ft 298 kts 124°
2026-04-21 20:07 44.82192 -93.35222 8323 ft 295 kts 125°
2026-04-21 20:07 44.81043 -93.32855 8077 ft 293 kts 124°
2026-04-21 20:07 44.79958 -93.30502 7983 ft 282 kts 122°
2026-04-21 20:07 44.78941 -93.28216 7952 ft 272 kts 122°
2026-04-21 20:08 44.77956 -93.25960 7665 ft 271 kts 122°
2026-04-21 20:08 44.76982 -93.23721 7368 ft 270 kts 121°
2026-04-21 20:08 44.76001 -93.21465 7092 ft 267 kts 121°
2026-04-21 20:08 44.75031 -93.19229 6786 ft 267 kts 121°
2026-04-21 20:09 44.74097 -93.17042 6595 ft 260 kts 121°
2026-04-21 20:09 44.73188 -93.14900 6394 ft 250 kts 121°
2026-04-21 20:09 44.72297 -93.12803 5940 ft 252 kts 121°
2026-04-21 20:09 44.71389 -93.10678 5487 ft 253 kts 121°
2026-04-21 20:10 44.70490 -93.08596 5144 ft 249 kts 121°
2026-04-21 20:10 44.69611 -93.06577 4997 ft 237 kts 121°
2026-04-21 20:10 44.68769 -93.04649 4987 ft 229 kts 121°
2026-04-21 20:10 44.68116 -93.02621 4975 ft 226 kts 99°
2026-04-21 20:11 44.68214 -93.00504 4744 ft 216 kts 66°
2026-04-21 20:11 44.69076 -92.98907 4502 ft 200 kts 33°
2026-04-21 20:11 44.70297 -92.98142 4311 ft 187 kts 12°
2026-04-21 20:11 44.71554 -92.97775 4023 ft 184 kts
2026-04-21 20:12 44.72797 -92.97427 3981 ft 183 kts
2026-04-21 20:12 44.74064 -92.97156 3985 ft 183 kts
2026-04-21 20:12 44.75337 -92.97158 3988 ft 183 kts 356°
2026-04-21 20:12 44.76597 -92.97360 3979 ft 180 kts 349°
2026-04-21 20:13 44.77754 -92.97919 3887 ft 177 kts 328°
2026-04-21 20:13 44.78524 -92.99262 3667 ft 184 kts 294°
2026-04-21 20:13 44.78999 -93.00805 3833 ft 164 kts 296°
2026-04-21 20:13 44.79440 -93.02294 3687 ft 165 kts 294°
2026-04-21 20:14 44.79586 -93.02811 3659 ft 163 kts 294°
2026-04-21 20:14 44.79682 -93.03161 3634 ft 162 kts 294°
2026-04-21 20:14 44.80162 -93.04594 3480 ft 162 kts 304°
2026-04-21 20:15 44.80825 -93.05855 3338 ft 161 kts 312°
2026-04-21 20:15 44.81564 -93.07079 3002 ft 166 kts 311°
2026-04-21 20:15 44.82258 -93.08388 2688 ft 167 kts 308°
2026-04-21 20:15 44.82890 -93.09691 2517 ft 157 kts 307°
2026-04-21 20:16 44.83488 -93.10998 2209 ft 160 kts 301°
2026-04-21 20:16 44.84022 -93.12384 1980 ft 158 kts 300°
2026-04-21 20:16 44.84521 -93.13681 1886 ft 145 kts 303°
2026-04-21 20:16 44.85036 -93.14883 1686 ft 142 kts 304°
2026-04-21 20:17 44.85553 -93.16049 1476 ft 140 kts 304°
2026-04-21 20:17 44.86073 -93.17182 1305 ft 138 kts 304°
2026-04-21 20:17 44.86583 -93.18332 1140 ft 138 kts 303°
2026-04-21 20:17 44.87076 -93.19493 968 ft 138 kts 303°
2026-04-21 20:18 44.87581 -93.20641 823 ft 134 kts 303°
2026-04-21 20:18 44.87965 -93.21533 828 ft 69 kts 303°
2026-04-21 20:18 44.88147 -93.21946 830 ft 27 kts 302°
2026-04-21 20:18 44.88251 -93.21990 830 ft 7 kts 27°
2026-04-21 20:19 44.88311 -93.21928 830 ft 12 kts 53°
2026-04-21 20:19 44.88292 -93.21814 830 ft 13 kts 118°
2026-04-21 20:19 44.88242 -93.21694 828 ft 15 kts 121°
2026-04-21 20:19 44.88185 -93.21562 827 ft 15 kts 121°
2026-04-21 20:20 44.88109 -93.21467 827 ft 14 kts 152°
2026-04-21 20:20 44.88039 -93.21362 825 ft 15 kts 119°
2026-04-21 20:20 44.88019 -93.21298 825 ft 4 kts 105°
2026-04-21 20:20 44.88016 -93.21255 825 ft 4 kts 91°
2026-04-21 20:21 44.88015 -93.21212 825 ft 4 kts 94°
2026-04-21 20:21 44.88009 -93.21169 824 ft 4 kts 112°
2026-04-21 20:21 44.87989 -93.21117 823 ft 6 kts 121°
2026-04-21 20:21 44.87964 -93.21056 822 ft 7 kts 121°
2026-04-21 20:22 44.87934 -93.20987 821 ft 6 kts 121°
2026-04-21 20:22 44.87881 -93.20862 819 ft 4 kts 121°
2026-04-21 20:22 44.87871 -93.20827 819 ft 3 kts 84°
2026-04-21 20:23 44.87885 -93.20805 819 ft 2 kts 36°
2026-04-21 20:23 44.87904 -93.20788 819 ft 2 kts 32°
2026-04-21 20:23 44.87918 -93.20775 820 ft 2 kts 32°
2026-04-21 20:23 44.87929 -93.20766 820 ft 1 kts 30°
2026-04-21 20:24 44.87931 -93.20763 820 ft 0 kts 30°